Other Public Products
Issued by NWS Grand Forks, ND

Home | Current Version | Previous Version | Text Only | Print | Product List | Glossary Off
Versions: 1 2 3 4 5 6 7 8 9 10 11 12 13 14 15 16 17 18 19 20 21 22 23 24 25 26 27 28 29 30 31 32 33 34 35 36 37 38 39 40 41 42 43 44 45 46 47 48 49 50

000
FPUS83 KFGF 011631
OPUFGF
PRAIRIE TO PINES WEATHER ROUNDUP
NATIONAL WEATHER SERVICE EASTERN NORTH DAKOTA/GRAND FORKS ND
1000 AM CST SUN MAR 01 2015

 **SATELLITE DATA USED TO AUGMENT SKY COVER AT AUTOMATED STATIONS**
 *****  WEATHER ACROSS EASTERN NORTH DAKOTA  *****

CITY           SKY/WX    TMP DP  RH WIND       PRES   REMARKS
GRAND FORKS    MOSUNNY   13   5  70 NW10      30.18R WCI   0
GRAND FORKS AF CLOUDY    16   7  67 NW15      30.17R WCI   1
GRAND CITY NWS   N/A     16 N/A N/A NW9         N/A  WCI   4
BUXTON         NOT AVBL
DEVILS LAKE    SUNNY     10   1  67 NW14      30.17R WCI  -5
FARGO          PTSUNNY   14   4  64 SW12      30.21S WCI   0
WAHPETON ARPT  SUNNY     18   9  68 W15       30.24S WCI   3
$$

 *****  WEATHER ACROSS CENTRAL AND WESTERN NORTH DAKOTA  *****

CITY           SKY/WX    TMP DP  RH WIND       PRES   REMARKS
JAMESTOWN      SUNNY     13   6  74 W17       30.18R WCI  -4
BISMARCK       MIX PCPN  19  12  74 NW15G26   30.23R WCI   5
MINOT          PTSUNNY   12   5  73 W17       30.20R WCI  -5
MINOT AFB      CLOUDY    10   7  86 NW15      30.20R WCI  -6
GARRISON         N/A     15   9  76 NW20      30.20R WCI  -2
WILLISTON      PTSUNNY   17  10  74 NW10      30.27R WCI   5
DICKINSON      PTSUNNY   21  13  71 NW21      30.20R WCI   5
HETTINGER      PTSUNNY   22  13  68 NW15G24   30.23R WCI   9
$$

 *****  OTHER OBSERVATIONS NORTHEAST NORTH DAKOTA  *****

CITY           SKY/WX    TMP DP  RH WIND       PRES   REMARKS
WALHALLA       LGT SNOW  12   9  85 NW10      30.17R WCI  -1
LANGDON        NOT AVBL
CAVALIER       LGT SNOW  12   7  79 NW12      30.17R WCI  -2
GRAFTON        NOT AVBL
CANDO          FAIR       9   3  78 NW12      30.18R WCI  -6
FORT TOTTEN    NOT AVBL
ROLLA          FLURRIES  10   7  85 NW16      30.14R WCI  -7
RUGBY          CLOUDY     7   5  92 NW18      30.18R WCI -12
 ***** THE ABOVE OBSERVATIONS ARE NON NWS ARE NOT QUALITY
        CONTROLLED AND MAY MIS-REPORT RAIN FOR SNOW...
$$

 *****  OTHER OBSERVATIONS SOUTHEAST NORTH DAKOTA *****

CITY           SKY/WX    TMP DP  RH WIND       PRES   REMARKS
COOPERSTOWN    NOT AVBL
VALLEY CITY    PTSUNNY   14   9  79 W17G24    30.18R WCI  -3
OAKES            N/A     16   9  73 W14       30.22S WCI   1
GWINNER        SUNNY     18   9  68 W15       30.22F WCI   3
SHEYENNE NWR     N/A     15   4  60 W9        29.95S WCI   3
BUFFALO        NOT AVBL
WYNDMERE         N/A     16   7  67 W12         N/A  WCI   3
 ***** THE ABOVE OBSERVATIONS ARE NON NWS ARE NOT QUALITY
       CONTROLLED AND MAY MIS-REPORT RAIN FOR SNOW...
$$

  *****  WEATHER ACROSS NORTHERN MINNESOTA  *****

CITY           SKY/WX    TMP DP  RH WIND       PRES   REMARKS
FLAG ISLAND    SUNNY      0  -6  78 SE3       30.08R
WARROAD        SUNNY      5  -2  72 W8        30.11R WCI  -8
ROSEAU         SUNNY      5   0  78 W9        30.12R WCI  -9
HALLOCK        SUNNY      9   3  78 W6        30.16R WCI  -1
THF RVR FALLS  SUNNY      7 N/A N/A SW7       30.15R WCI  -5
HALSTAD          N/A     14   5  68 W5          N/A  WCI   6
FOSSTON        CLOUDY     5   0  78 SW16      30.15S WCI -14
BAUDETTE       SUNNY      5  -2  72 W6        30.09R WCI  -6
WASKISH        MOSUNNY    9   1  72 SW12      30.12R WCI  -6
CROOKSTON      PTSUNNY   10   5  79 W9        30.19S WCI  -2
$$
  *****  WEATHER ACROSS CENTRAL AND WEST MINNESOTA  *****

CITY           SKY/WX    TMP DP  RH WIND       PRES   REMARKS
BEMIDJI        SUNNY     11   2  70 W9        30.12S WCI  -2
PARK RAPIDS    SUNNY     10   2  69 W9        30.15S WCI  -3
WADENA         SUNNY     10   1  67 SW8       30.18S WCI  -1
DETROIT LAKES  SUNNY     10   5  79 SW8       30.18R WCI  -1
MOORHEAD       SUNNY     16   9  73 W9        30.22S WCI   4
FERGUS FALLS   SUNNY     12   3  67 W8        30.27R WCI   1
ELBOW LAKE     FAIR      14   7  75 W13       30.23R WCI   0
MORRIS MN      SUNNY     19   9  63 W16       30.23S WCI   5
STAPLES        SUNNY     14   3  62 W10       30.19S WCI   1
WHEATON        NOT AVBL
$$
  *****  WEATHER ELSEWHERE ACROSS MINNESOTA  *****

CITY           SKY/WX    TMP DP  RH WIND       PRES   REMARKS
DULUTH         PTSUNNY   15   6  67 W15       30.10R WCI   0
INTRNTL FALLS  SUNNY      8   0  69 W10       30.08R WCI  -6
ELY            SUNNY     18   1  49 W15G22    30.04S WCI   3
CLOQUET        SUNNY     16   3  57 W14       30.12S WCI   1
BRAINERD       MOSUNNY   11   3  70 SW7       30.19F WCI   0
HIBBING        SUNNY     14   2  58 W10       30.10R WCI   1
ALEXANDRIA     SUNNY     13   4  67 W7        30.21S WCI   3
SAINT CLOUD    MOSUNNY   14   3  61 W13       30.24R WCI   0
MINNEAPOLIS    PTSUNNY   18   6  59 W16       30.27R WCI   3
$$

  *****  WEATHER ACROSS SOUTH DAKOTA  *****

CITY           SKY/WX    TMP DP  RH WIND       PRES   REMARKS
SIOUX FALLS    PTSUNNY   19  11  70 W8        30.32R WCI   9
BROOKINGS      NOT AVBL
WATERTOWN      SUNNY     16   8  71 SW14      30.23S WCI   2
HURON          SUNNY     22  12  65 W13       30.30F WCI  10
SISSETON         N/A     16   6  65 W16       30.23S WCI   1
ABERDEEN       PTSUNNY   21  10  62 W13       30.26S WCI   9
MITCHELL       PTSUNNY   26  10  50 W18       30.33S WCI  13
PIERRE         MOSUNNY   24  11  57 W18       30.29R WCI  10
MOBRIDGE       PTSUNNY   21  13  71 NW9       30.23R WCI  11
RAPID CITY     SUNNY     22  11  62 NW5       30.26R WCI  16
$$

  *****  SOME WEATHER IN NEARBY STATES *****

CITY           SKY/WX    TMP DP  RH WIND       PRES   REMARKS
GLASGOW MT     MOSUNNY   20  13  74 NW10      30.30R WCI   9
GREAT FALLS MT SUNNY     20  10  65 SW14      30.22S WCI   7
CHEYENNE WY    LGT SNOW  15   9  76 NW7       30.17R WCI   5
SCOTTSBLUFF NE MOSUNNY   23  13  65 W8        30.27R WCI  14
OMAHA NE       MOSUNNY   25  15  66 NW8       30.39R WCI  16
DES MOINES IA  PTSUNNY   26  16  65 W7        30.37S WCI  18
DAVENPORT IA   LGT SNOW  18  15  88 SW3       30.38S FOG
CHICAGO IL     CLOUDY    20  15  81 W5        30.36R HAZE    WCI  13
EAU CLAIRE WI  CLOUDY    16  11  80 SW9       30.24S HAZE    WCI   4
LA CROSSE WI   CLOUDY    17  12  80 S7        30.30F WCI   8
$$

  *****  SOME NATIONAL WEATHER *****

CITY           SKY/WX    TMP DP  RH WIND       PRES   REMARKS
LA GUARDIA NY  CLOUDY    30   5  34 S12       30.60F WCI  20
RALEIGH NC     LGT RAIN  33  30  88 NE5       30.54F FOG
ATLANTA GA     CLOUDY    39  36  89 E10       30.49S FOG
NEW ORLEANS LA FOG       58  56  93 E10       30.32F VSB 1/4
OKLAHOMA CITY  FRZ DRZL  30  27  86 N7        30.38R WCI  23
ALBUQUERQUE NM PTSUNNY   35  34  96 SE3       30.13R
SALT LAKE CITY PTSUNNY   36  28  73 W5        30.08R
LOS ANGELES CA PTSUNNY   53  46  77 NE6       29.95R
BOISE ID       CLOUDY    36  19  51 SE16      30.20R
SEATTLE WA     MOSUNNY   38  28  67 SE5       30.23S
$$

*** WEATHER ACROSS MANITOBA...SASKATCHEWAN AND ONTARIO ***
                ***ONTARIO***

CITY           SKY/WX    TMP DP  RH WIND       PRES   REMARKS
GERALDTON      FLURRIES  16   7  67 SW15G24   29.94F WCI   1
THUNDER BAY    FLURRIES  19  10  68 W9        30.06F WCI   9
SIOUX LOOKOUT  PTSUNNY   10   3  72 W10       29.97R WCI  -3
TORONTO        FLURRIES  21  12  68 VRB2      30.36F
BIG TROUT LK   PTSUNNY    5   0  78 NW12      29.84  WCI -11
PICKLE LAKE    FLURRIES  12   3  67 W13G18    29.86F WCI  -3
DRYDEN         SUNNY      7   0  72 W12       30.00R WCI  -9
KENORA         MOSUNNY    1  -2  85 W7        30.04R WCI -11
$$
                *** MANITOBA***

CITY           SKY/WX    TMP DP  RH WIND       PRES   REMARKS
BRANDON        PTSUNNY    7   1  78 W10       30.18R WCI  -8
DAUPHIN        SUNNY      9   3  78 W14       30.16R WCI  -8
ISLAND LAKE    MOSUNNY    3  -6  66 W8        29.98  WCI -10
PILOT MOUND      N/A      5   0  78 NW12        N/A  WCI -11
THE PAS        MOSUNNY    3  -4  72 NW8       30.16R WCI -10
THOMPSON       MOSUNNY   -6 -15  65 NW13G22   30.02R WCI -25
WINNIPEG       FLURRIES   7   1  78 W9        30.16R WCI  -7
LYNN LAKE      SUNNY     -6 -13  71 NW16G22   30.05R WCI -28
CHURCHILL      CRYSTALS -20 -27  69 NW26G35   29.93R BLWGSNOWWCI -52
GILLAM         PTSUNNY   -9 -18  64 NW12G17   29.95S WCI -29
$$
                ***SASKATCHEWAN***

CITY           SKY/WX    TMP DP  RH WIND       PRES   REMARKS
ESTEVAN        PTSUNNY    3   0  85 NW12      30.23R WCI -13
KINDERSLEY     MOSUNNY    5   1  85 S6        30.23R WCI  -6
LLOYDMINSTER   MOSUNNY    7   5  92 SW6       30.17R WCI  -3
PRINCE ALBERT  SUNNY      9   7  92 NW9       30.22R WCI  -5
REGINA         MOSUNNY    1   0  92 SW6       30.23R WCI -10



USA.gov is the U.S. government's official web portal to all federal, state and local government web resources and services.